^^
Station Historical Data
Daily Summary for March 7, 2017 Units:  English    Metric   Both
« Previous Day
Next Day »
Daily Weekly Monthly Yearly Custom
  High: Low: Average:
Temperature: 55.4 °F 37.5 °F 44.3 °F
Dew Point: 52.4 °F 29.7 °F 40.6 °F
Humidity: 94 % 61 % 87 %
Wind Speed: 6.7 mph 0.0 mph 0.6 mph
Wind Gust: 10.4 mph - -
Wind:- - SSE
Pressure: 30.38 in 29.98 in -
Precipitation: 0.29 in    
Historical Graphs
 
 
Tabular Data for March 7, 2017
Time Temperature Dew Point Pressure Wind Wind Speed Wind Gust Humidity Rainfall Rate (Hourly) solar Conditions
00:04 42.2 °F 29.7 °F 30.38 in Calm   2.3 mph 61 % 0.00 in 0.0 W/m2 CLR
00:09 42.2 °F 30.1 °F 30.38 in Calm     62 % 0.00 in 0.0 W/m2 CLR
00:14 42.2 °F 30.1 °F 30.38 in Calm     62 % 0.00 in 0.0 W/m2 CLR
00:20 42.1 °F 30.4 °F 30.38 in Calm     63 % 0.00 in 0.0 W/m2 CLR
00:25 42.0 °F 30.3 °F 30.38 in Calm     63 % 0.00 in 0.0 W/m2 CLR
00:30 42.0 °F 30.3 °F 30.38 in Calm     63 % 0.00 in 0.0 W/m2 CLR
00:35 42.0 °F 30.7 °F 30.38 in Calm     64 % 0.00 in 0.0 W/m2 CLR
00:40 41.9 °F 30.6 °F 30.38 in South 1.0 mph 3.0 mph 64 % 0.00 in 0.0 W/m2 CLR
00:45 41.9 °F 30.6 °F 30.38 in South 0.4 mph 2.3 mph 64 % 0.00 in 0.0 W/m2 CLR
00:50 41.9 °F 30.6 °F 30.38 in South 0.6 mph 3.5 mph 64 % 0.00 in 0.0 W/m2 CLR
00:55 41.8 °F 30.5 °F 30.37 in Calm     64 % 0.00 in 0.0 W/m2 CLR
01:00 41.7 °F 30.4 °F 30.37 in Calm     64 % 0.00 in 0.0 W/m2 CLR
01:05 41.6 °F 30.7 °F 30.37 in Calm     65 % 0.00 in 0.0 W/m2 CLR
01:10 41.5 °F 30.6 °F 30.37 in Calm     65 % 0.00 in 0.0 W/m2 CLR
01:15 41.4 °F 30.9 °F 30.37 in Calm     66 % 0.00 in 0.0 W/m2 CLR
01:20 41.4 °F 31.3 °F 30.37 in Calm     67 % 0.00 in 0.0 W/m2 CLR
01:25 41.4 °F 31.3 °F 30.37 in Calm     67 % 0.00 in 0.0 W/m2 CLR
01:30 41.3 °F 31.9 °F 30.37 in Calm     69 % 0.00 in 0.0 W/m2 CLR
01:35 41.0 °F 31.6 °F 30.37 in Calm     69 % 0.00 in 0.0 W/m2 CLR
01:40 40.9 °F 31.9 °F 30.37 in Calm     70 % 0.00 in 0.0 W/m2 CLR
01:45 40.9 °F 32.2 °F 30.37 in Calm     71 % 0.00 in 0.0 W/m2 CLR
01:50 40.7 °F 32.4 °F 30.36 in Calm     72 % 0.00 in 0.0 W/m2 CLR
01:55 40.5 °F 32.5 °F 30.36 in Calm     73 % 0.01 in 0.0 W/m2 RA
02:00 40.4 °F 32.8 °F 30.36 in Calm     74 % 0.01 in 0.0 W/m2 RA
02:05 40.2 °F 32.6 °F 30.36 in Calm     74 % 0.01 in 0.0 W/m2
02:10 40.1 °F 32.8 °F 30.35 in Calm     75 % 0.01 in 0.0 W/m2 CLR
02:15 40.0 °F 32.7 °F 30.35 in South 0.1 mph   75 % 0.01 in 0.0 W/m2 CLR
02:20 39.8 °F 32.8 °F 30.35 in Calm     76 % 0.01 in 0.0 W/m2 CLR
02:22 39.8 °F 32.8 °F 30.35 in Calm     76 % 0.01 in 0.0 W/m2 CLR
02:27 39.7 °F 33.1 °F 30.35 in Calm     77 % 0.02 in 0.0 W/m2 RA
02:32 39.6 °F 33.3 °F 30.35 in Calm     78 % 0.02 in 0.0 W/m2 RA
02:37 39.5 °F 33.5 °F 30.34 in Calm     79 % 0.02 in 0.0 W/m2
02:42 39.4 °F 33.4 °F 30.34 in Calm     79 % 0.02 in 0.0 W/m2 CLR
02:47 39.4 °F 33.7 °F 30.34 in Calm     80 % 0.02 in 0.0 W/m2 CLR
02:52 39.3 °F 34.0 °F 30.34 in Calm     81 % 0.02 in 0.0 W/m2 CLR
02:57 39.2 °F 33.9 °F 30.34 in South 0.1 mph 1.2 mph 81 % 0.02 in 0.0 W/m2 RA
03:02 39.1 °F 33.8 °F 30.34 in Calm     81 % 0.02 in 0.0 W/m2 RA
03:07 39.0 °F 34.0 °F 30.34 in Calm     82 % 0.02 in 0.0 W/m2
03:12 38.9 °F 33.9 °F 30.33 in Calm     82 % 0.02 in 0.0 W/m2 CLR
03:17 39.0 °F 34.0 °F 30.33 in Calm     82 % 0.02 in 0.0 W/m2 CLR
03:22 39.0 °F 34.3 °F 30.33 in Calm     83 % 0.02 in 0.0 W/m2 CLR
03:27 39.1 °F 34.4 °F 30.33 in South 0.1 mph 1.2 mph 83 % 0.01 in 0.0 W/m2 CLR
03:33 39.0 °F 34.3 °F 30.33 in Calm     83 % 0.01 in 0.0 W/m2 CLR
03:37 39.1 °F 34.4 °F 30.33 in Calm     83 % 0.01 in 0.0 W/m2 CLR
03:43 39.0 °F 34.6 °F 30.33 in Calm     84 % 0.01 in 0.0 W/m2 CLR
03:48 39.1 °F 34.7 °F 30.33 in Calm     84 % 0.01 in 0.0 W/m2 CLR
03:53 39.1 °F 34.7 °F 30.34 in Calm     84 % 0.01 in 0.0 W/m2 CLR
03:58 39.1 °F 34.7 °F 30.34 in Calm   1.2 mph 84 % 0.00 in 0.0 W/m2 CLR
04:03 39.1 °F 34.7 °F 30.34 in NE 0.2 mph 3.5 mph 84 % 0.00 in 0.0 W/m2 CLR
04:07 39.1 °F 35.0 °F 30.33 in Calm   1.2 mph 85 % 0.00 in 0.0 W/m2 CLR
04:12 39.0 °F 34.9 °F 30.33 in Calm   2.3 mph 85 % 0.00 in 0.0 W/m2 CLR
04:17 38.9 °F 34.8 °F 30.33 in NE 0.4 mph 3.5 mph 85 % 0.00 in 0.0 W/m2 CLR
04:22 38.8 °F 34.7 °F 30.33 in Calm   1.2 mph 85 % 0.00 in 0.0 W/m2 CLR
04:27 38.7 °F 34.6 °F 30.33 in NE 0.1 mph 2.3 mph 85 % 0.00 in 0.0 W/m2 CLR
04:32 38.5 °F 34.4 °F 30.33 in NE 0.4 mph 2.3 mph 85 % 0.00 in 0.0 W/m2 CLR
04:37 38.5 °F 34.4 °F 30.33 in NE 0.7 mph 3.5 mph 85 % 0.00 in 0.0 W/m2 CLR
04:42 38.5 °F 34.4 °F 30.33 in NE 0.2 mph 1.2 mph 85 % 0.00 in 0.0 W/m2 CLR
04:47 38.4 °F 34.3 °F 30.33 in Calm   3.5 mph 85 % 0.00 in 0.0 W/m2 CLR
04:52 38.5 °F 34.4 °F 30.33 in Calm     85 % 0.00 in 0.0 W/m2 CLR
04:57 38.4 °F 34.3 °F 30.34 in NE 1.4 mph 2.0 mph 85 % 0.00 in 0.0 W/m2 CLR
05:02 38.3 °F 34.2 °F 30.33 in NE 1.8 mph 4.0 mph 85 % 0.00 in 0.0 W/m2 CLR
05:08 38.2 °F 34.1 °F 30.34 in Calm     85 % 0.00 in 0.0 W/m2 CLR
05:13 38.1 °F 34.0 °F 30.34 in NE 0.1 mph 3.5 mph 85 % 0.00 in 0.0 W/m2 CLR
05:18 38.1 °F 34.0 °F 30.34 in Calm     85 % 0.00 in 0.0 W/m2 CLR
05:23 38.0 °F 33.9 °F 30.34 in Calm     85 % 0.00 in 0.0 W/m2 CLR
05:28 37.9 °F 33.8 °F 30.33 in Calm   3.5 mph 85 % 0.00 in 0.0 W/m2 CLR
05:33 37.9 °F 33.8 °F 30.34 in Calm   1.2 mph 85 % 0.00 in 0.0 W/m2 CLR
05:38 37.9 °F 33.8 °F 30.34 in NE 0.5 mph 3.5 mph 85 % 0.00 in 0.0 W/m2 CLR
05:43 37.8 °F 33.7 °F 30.34 in NE 0.1 mph   85 % 0.00 in 0.0 W/m2 CLR
05:48 37.8 °F 33.7 °F 30.34 in NE 1.2 mph 3.0 mph 85 % 0.00 in 0.0 W/m2 CLR
05:53 37.8 °F 33.7 °F 30.34 in NE 0.1 mph 2.3 mph 85 % 0.00 in 0.0 W/m2 CLR
05:58 37.8 °F 33.7 °F 30.34 in Calm     85 % 0.00 in 0.0 W/m2 CLR
06:03 37.8 °F 34.0 °F 30.34 in Calm     86 % 0.00 in 0.0 W/m2 CLR
06:08 37.8 °F 34.0 °F 30.34 in Calm     86 % 0.00 in 0.0 W/m2 CLR
06:13 37.8 °F 34.0 °F 30.34 in Calm     86 % 0.01 in 0.0 W/m2 RA
06:18 37.7 °F 33.9 °F 30.34 in Calm     86 % 0.01 in 0.0 W/m2 RA
06:23 37.7 °F 34.2 °F 30.34 in Calm     87 % 0.01 in 0.0 W/m2
06:28 37.7 °F 34.2 °F 30.34 in Calm     87 % 0.02 in 0.0 W/m2 RA
06:33 37.6 °F 34.1 °F 30.34 in Calm     87 % 0.02 in 0.0 W/m2 RA
06:38 37.5 °F 34.3 °F 30.34 in Calm     88 % 0.02 in 0.0 W/m2
06:41 37.6 °F 34.4 °F 30.34 in Calm     88 % 0.02 in 0.0 W/m2 CLR
06:46 37.5 °F 34.3 °F 30.34 in Calm     88 % 0.03 in 0.0 W/m2 RA
06:51 37.6 °F 34.4 °F 30.34 in Calm     88 % 0.03 in 0.0 W/m2 RA
06:56 37.7 °F 34.8 °F 30.34 in Calm     89 % 0.04 in 5.0 W/m2 RA
07:01 37.6 °F 34.7 °F 30.34 in NE 1.8 mph 3.5 mph 89 % 0.04 in 7.0 W/m2 RA
07:06 37.6 °F 34.7 °F 30.34 in NE 1.2 mph 3.5 mph 89 % 0.05 in 9.0 W/m2 RA
07:11 37.6 °F 34.7 °F 30.34 in NE 0.1 mph 2.0 mph 89 % 0.05 in 11.0 W/m2 RA
07:16 37.6 °F 34.7 °F 30.34 in Calm     89 % 0.06 in 11.0 W/m2 RA
07:17 37.5 °F 34.6 °F 30.34 in Calm     89 % 0.06 in 12.0 W/m2 RA
07:22 37.6 °F 34.7 °F 30.34 in Calm     89 % 0.06 in 12.0 W/m2 RA
07:23 37.6 °F 34.7 °F 30.34 in Calm     89 % 0.07 in 12.0 W/m2 RA
07:28 37.6 °F 34.9 °F 30.34 in Calm     90 % 0.06 in 14.0 W/m2 RA
07:33 37.6 °F 34.9 °F 30.34 in Calm     90 % 0.07 in 18.0 W/m2 RA
07:38 37.5 °F 34.8 °F 30.34 in Calm     90 % 0.07 in 18.0 W/m2 RA
07:43 37.5 °F 34.8 °F 30.34 in Calm     90 % 0.07 in 18.0 W/m2 RA
07:48 37.5 °F 34.8 °F 30.33 in Calm     90 % 0.07 in 21.0 W/m2 RA
07:53 37.5 °F 34.8 °F 30.33 in Calm     90 % 0.07 in 26.0 W/m2 RA
07:58 37.6 °F 35.2 °F 30.33 in Calm     91 % 0.08 in 28.0 W/m2 RA
08:03 37.7 °F 35.0 °F 30.33 in Calm     90 % 0.07 in 32.0 W/m2 RA
08:08 37.7 °F 35.3 °F 30.33 in Calm     91 % 0.07 in 39.0 W/m2 RA
08:13 37.9 °F 35.5 °F 30.33 in Calm     91 % 0.07 in 39.0 W/m2 RA
08:18 38.0 °F 35.6 °F 30.33 in Calm     91 % 0.07 in 42.0 W/m2 RA
08:23 37.8 °F 35.4 °F 30.32 in Calm     91 % 0.06 in 46.0 W/m2 RA
08:24 37.9 °F 35.5 °F 30.32 in Calm     91 % 0.06 in 47.0 W/m2 RA
08:29 38.0 °F 35.6 °F 30.32 in Calm     91 % 0.07 in 47.0 W/m2 RA
08:34 37.8 °F 35.4 °F 30.32 in Calm     91 % 0.07 in 47.0 W/m2 RA
08:40 38.0 °F 35.6 °F 30.32 in Calm     91 % 0.07 in 54.0 W/m2 RA
08:45 38.0 °F 35.6 °F 30.32 in Calm     91 % 0.06 in 56.0 W/m2 OVC
08:50 37.9 °F 35.5 °F 30.31 in Calm     91 % 0.07 in 58.0 W/m2 RA
08:55 38.1 °F 36.0 °F 30.31 in Calm     92 % 0.06 in 62.0 W/m2 RA
09:00 38.2 °F 36.1 °F 30.31 in Calm     92 % 0.06 in 63.0 W/m2 RA
09:05 38.3 °F 36.2 °F 30.31 in Calm     92 % 0.01 in 65.0 W/m2 RA
09:10 38.4 °F 36.3 °F 30.30 in NE 2.0 mph 3.0 mph 92 % 0.01 in 58.0 W/m2 RA
09:15 38.4 °F 36.3 °F 30.30 in NE 1.7 mph 3.5 mph 92 % 0.06 in 58.0 W/m2 RA
09:20 38.6 °F 36.5 °F 30.30 in NE 1.2 mph 2.3 mph 92 % 0.06 in 67.0 W/m2 RA
09:25 38.7 °F 36.6 °F 30.30 in Calm     92 % 0.06 in 77.0 W/m2 RA
09:30 38.8 °F 36.7 °F 30.30 in NE 0.6 mph 3.0 mph 92 % 0.06 in 97.0 W/m2 RA
09:35 38.8 °F 36.7 °F 30.30 in Calm     92 % 0.05 in 98.0 W/m2 RA
09:40 38.8 °F 36.7 °F 30.29 in NE 1.4 mph 3.5 mph 92 % 0.06 in 91.0 W/m2 RA
09:45 38.9 °F 37.0 °F 30.29 in NE 0.1 mph 2.0 mph 93 % 0.06 in 114.0 W/m2 RA
09:50 39.0 °F 37.1 °F 30.29 in Calm     93 % 0.05 in 160.0 W/m2 BKN
09:55 39.2 °F 37.3 °F 30.29 in Calm     93 % 0.05 in 165.0 W/m2 BKN
10:00 39.4 °F 37.5 °F 30.29 in Calm     93 % 0.04 in 121.0 W/m2 OVC
10:05 39.4 °F 37.5 °F 30.28 in NE 0.2 mph 1.2 mph 93 % 0.03 in 123.0 W/m2 OVC
10:10 39.7 °F 37.8 °F 30.28 in NE 0.4 mph 3.5 mph 93 % 0.03 in 118.0 W/m2 OVC
10:15 39.6 °F 37.7 °F 30.29 in Calm     93 % 0.03 in 132.0 W/m2 OVC
10:20 40.1 °F 38.2 °F 30.28 in NE 2.2 mph 3.5 mph 93 % 0.02 in 128.0 W/m2 OVC
10:25 40.3 °F 38.4 °F 30.28 in Calm     93 % 0.02 in 111.0 W/m2 OVC
10:30 40.2 °F 38.3 °F 30.28 in Calm     93 % 0.01 in 120.0 W/m2 OVC
10:35 40.2 °F 38.3 °F 30.28 in Calm     93 % 0.01 in 158.0 W/m2 OVC
10:40 40.6 °F 38.7 °F 30.28 in NE 0.7 mph 2.3 mph 93 % 0.00 in 192.0 W/m2 BKN
10:45 40.7 °F 38.8 °F 30.28 in Calm     93 % 0.00 in 195.0 W/m2 BKN
10:50 40.9 °F 39.0 °F 30.28 in Calm     93 % 0.00 in 162.0 W/m2 BKN
10:55 41.0 °F 39.1 °F 30.28 in Calm     93 % 0.00 in 185.0 W/m2 BKN
11:01 41.3 °F 39.4 °F 30.28 in Calm     93 % 0.00 in 163.0 W/m2 BKN
11:06 41.4 °F 39.5 °F 30.27 in Calm     93 % 0.00 in 149.0 W/m2 OVC
11:11 41.4 °F 39.5 °F 30.27 in Calm     93 % 0.00 in 127.0 W/m2 OVC
11:16 41.6 °F 39.7 °F 30.27 in Calm     93 % 0.00 in 135.0 W/m2 OVC
11:21 41.9 °F 40.0 °F 30.26 in NE 2.0 mph 3.5 mph 93 % 0.00 in 134.0 W/m2 OVC
11:26 42.0 °F 40.1 °F 30.26 in Calm     93 % 0.00 in 176.0 W/m2 OVC
11:31 42.2 °F 40.3 °F 30.26 in Calm     93 % 0.01 in 232.0 W/m2 RA
11:36 42.5 °F 40.6 °F 30.25 in Calm   1.2 mph 93 % 0.01 in 257.0 W/m2 RA
11:41 42.8 °F 40.9 °F 30.26 in Calm     93 % 0.01 in 295.0 W/m2 BKN
11:46 42.9 °F 40.7 °F 30.26 in NE 2.0 mph 3.5 mph 92 % 0.01 in 248.0 W/m2 BKN
11:51 43.0 °F 41.1 °F 30.25 in Calm     93 % 0.01 in 218.0 W/m2 BKN
11:56 43.3 °F 41.4 °F 30.25 in Calm     93 % 0.01 in 162.0 W/m2 OVC
12:01 43.5 °F 41.3 °F 30.25 in NE 1.1 mph 2.3 mph 92 % 0.01 in 137.0 W/m2 OVC
12:06 43.5 °F 41.3 °F 30.25 in Calm     92 % 0.01 in 186.0 W/m2 OVC
12:11 43.6 °F 41.4 °F 30.24 in Calm     92 % 0.01 in 193.0 W/m2 BKN
12:16 43.8 °F 41.6 °F 30.24 in Calm     92 % 0.01 in 135.0 W/m2 OVC
12:21 43.9 °F 41.7 °F 30.23 in Calm     92 % 0.01 in 113.0 W/m2 OVC
12:26 44.3 °F 42.1 °F 30.23 in Calm     92 % 0.01 in 155.0 W/m2 OVC
12:31 44.3 °F 42.1 °F 30.23 in Calm     92 % 0.00 in 174.0 W/m2 OVC
12:36 44.6 °F 42.4 °F 30.22 in Calm     92 % 0.00 in 169.0 W/m2 OVC
12:41 44.7 °F 42.5 °F 30.22 in Calm     92 % 0.00 in 105.0 W/m2 OVC
12:46 44.8 °F 42.6 °F 30.21 in Calm     92 % 0.00 in 104.0 W/m2 OVC
12:51 44.9 °F 42.7 °F 30.21 in NE 0.8 mph 2.3 mph 92 % 0.00 in 148.0 W/m2 OVC
12:56 45.0 °F 42.5 °F 30.20 in NE 1.5 mph 2.0 mph 91 % 0.00 in 160.0 W/m2 OVC
13:01 45.1 °F 42.9 °F 30.20 in NE 1.7 mph 3.5 mph 92 % 0.00 in 116.0 W/m2 OVC
13:06 45.2 °F 42.7 °F 30.20 in Calm     91 % 0.00 in 116.0 W/m2 OVC
13:07 45.2 °F 42.7 °F 30.20 in Calm     91 % 0.00 in 111.0 W/m2 OVC
13:12 45.1 °F 42.6 °F 30.20 in Calm     91 % 0.00 in 111.0 W/m2 OVC
13:17 45.4 °F 42.9 °F 30.19 in NE 0.7 mph 2.3 mph 91 % 0.00 in 100.0 W/m2 OVC
13:22 45.5 °F 43.0 °F 30.19 in Calm     91 % 0.00 in 77.0 W/m2 OVC
13:27 45.6 °F 43.1 °F 30.19 in Calm     91 % 0.00 in 100.0 W/m2 OVC
13:33 46.0 °F 43.5 °F 30.19 in Calm     91 % 0.00 in 146.0 W/m2 RA
13:38 46.2 °F 43.7 °F 30.18 in NE 0.2 mph 2.3 mph 91 % 0.00 in 148.0 W/m2 RA
13:43 46.5 °F 44.0 °F 30.18 in Calm     91 % 0.00 in 200.0 W/m2 BKN
13:48 46.6 °F 44.1 °F 30.18 in NE 1.2 mph 2.3 mph 91 % 0.00 in 192.0 W/m2 BKN
13:53 46.6 °F 44.1 °F 30.18 in NNE 2.4 mph 3.5 mph 91 % 0.00 in 267.0 W/m2 BKN
13:58 47.2 °F 45.0 °F 30.18 in North 2.1 mph 3.5 mph 92 % 0.00 in 241.0 W/m2 BKN
14:03 46.9 °F 44.4 °F 30.18 in North 1.8 mph 3.5 mph 91 % 0.00 in 230.0 W/m2 BKN
14:08 46.9 °F 44.4 °F 30.17 in North 1.1 mph 3.5 mph 91 % 0.00 in 253.0 W/m2 BKN
14:13 47.1 °F 44.6 °F 30.17 in North 2.5 mph 3.5 mph 91 % 0.00 in 227.0 W/m2 BKN
14:18 47.4 °F 44.9 °F 30.17 in North 1.6 mph 3.5 mph 91 % 0.00 in 218.0 W/m2 BKN
14:23 47.4 °F 44.9 °F 30.17 in Calm   3.5 mph 91 % 0.00 in 341.0 W/m2 BKN
14:28 48.3 °F 45.8 °F 30.17 in North 1.7 mph 2.3 mph 91 % 0.00 in 380.0 W/m2 FEW
14:33 48.8 °F 46.3 °F 30.17 in North 2.4 mph 3.5 mph 91 % 0.00 in 543.0 W/m2 CLR
14:38 49.0 °F 45.9 °F 30.17 in North 2.0 mph 3.5 mph 89 % 0.00 in 283.0 W/m2 SCT
14:43 49.5 °F 46.4 °F 30.17 in NNW 1.0 mph 3.5 mph 89 % 0.00 in 258.0 W/m2 SCT
14:48 49.5 °F 46.4 °F 30.17 in NNW 1.9 mph 3.5 mph 89 % 0.00 in 197.0 W/m2 BKN
14:53 49.4 °F 46.3 °F 30.17 in NNW 1.9 mph 3.5 mph 89 % 0.00 in 204.0 W/m2 BKN
14:58 49.3 °F 45.9 °F 30.17 in NNW 1.4 mph 3.5 mph 88 % 0.00 in 199.0 W/m2 BKN
15:03 49.2 °F 45.8 °F 30.17 in NNW 1.5 mph 2.3 mph 88 % 0.00 in 174.0 W/m2 BKN
15:08 49.1 °F 45.7 °F 30.16 in NNW 1.1 mph 3.5 mph 88 % 0.00 in 127.0 W/m2 BKN
15:13 49.0 °F 45.6 °F 30.16 in NNW 1.4 mph 3.5 mph 88 % 0.00 in 149.0 W/m2 BKN
15:18 48.9 °F 45.8 °F 30.16 in Calm     89 % 0.00 in 183.0 W/m2 BKN
15:23 49.2 °F 45.8 °F 30.16 in Calm   2.3 mph 88 % 0.00 in 179.0 W/m2 BKN
15:28 49.3 °F 45.9 °F 30.15 in Calm     88 % 0.00 in 186.0 W/m2 BKN
15:33 49.5 °F 46.1 °F 30.15 in NNW 1.5 mph 3.5 mph 88 % 0.00 in 246.0 W/m2 SCT
15:38 49.8 °F 46.4 °F 30.15 in NNW 2.2 mph 3.0 mph 88 % 0.00 in 257.0 W/m2 FEW
15:43 50.0 °F 46.6 °F 30.15 in NNW 1.1 mph 2.3 mph 88 % 0.00 in 230.0 W/m2 FEW
15:48 49.8 °F 46.1 °F 30.14 in North 2.1 mph 3.0 mph 87 % 0.00 in 218.0 W/m2 FEW
15:53 49.8 °F 46.4 °F 30.14 in North 1.7 mph 3.0 mph 88 % 0.00 in 146.0 W/m2 SCT
15:58 49.5 °F 45.8 °F 30.14 in North 2.1 mph 3.5 mph 87 % 0.00 in 142.0 W/m2 BKN
16:04 49.4 °F 46.0 °F 30.13 in North 2.0 mph 3.5 mph 88 % 0.00 in 156.0 W/m2 SCT
16:09 49.7 °F 46.3 °F 30.13 in Calm   2.3 mph 88 % 0.00 in 151.0 W/m2 SCT
16:14 49.7 °F 46.3 °F 30.13 in North 2.6 mph 4.0 mph 88 % 0.00 in 128.0 W/m2 SCT
16:18 49.6 °F 46.2 °F 30.13 in North 3.2 mph 4.6 mph 88 % 0.00 in 134.0 W/m2 SCT
16:23 49.6 °F 46.2 °F 30.12 in North 1.0 mph 3.5 mph 88 % 0.00 in 128.0 W/m2 SCT
16:29 49.5 °F 46.1 °F 30.12 in North 1.9 mph 3.5 mph 88 % 0.00 in 113.0 W/m2 SCT
16:34 49.6 °F 46.2 °F 30.12 in North 1.4 mph 3.0 mph 88 % 0.00 in 160.0 W/m2 FEW
16:39 49.8 °F 46.4 °F 30.12 in North 2.7 mph 3.5 mph 88 % 0.00 in 195.0 W/m2 CLR
16:44 49.9 °F 46.5 °F 30.12 in North 3.1 mph 3.5 mph 88 % 0.00 in 135.0 W/m2 CLR
16:49 49.7 °F 46.3 °F 30.11 in North 1.4 mph 2.0 mph 88 % 0.00 in 111.0 W/m2 FEW
16:54 49.9 °F 46.5 °F 30.11 in North 2.8 mph 3.5 mph 88 % 0.00 in 91.0 W/m2 SCT
16:59 49.8 °F 46.4 °F 30.11 in Calm     88 % 0.00 in 77.0 W/m2 SCT
17:04 49.8 °F 46.4 °F 30.11 in North 1.8 mph 3.5 mph 88 % 0.00 in 70.0 W/m2 SCT
17:09 49.8 °F 46.4 °F 30.11 in North 1.5 mph 3.5 mph 88 % 0.00 in 54.0 W/m2 SCT
17:14 49.8 °F 46.4 °F 30.11 in North 2.0 mph 3.5 mph 88 % 0.00 in 37.0 W/m2 BKN
17:19 49.8 °F 46.4 °F 30.11 in North 2.3 mph 3.5 mph 88 % 0.00 in 30.0 W/m2 BKN
17:24 49.7 °F 46.3 °F 30.11 in North 1.4 mph 2.3 mph 88 % 0.00 in 18.0 W/m2 OVC
17:29 49.7 °F 46.3 °F 30.11 in Calm     88 % 0.00 in 19.0 W/m2 BKN
17:34 49.6 °F 46.2 °F 30.11 in Calm     88 % 0.00 in 19.0 W/m2 BKN
17:39 49.5 °F 46.1 °F 30.10 in Calm     88 % 0.00 in 14.0 W/m2 BKN
17:44 49.5 °F 46.1 °F 30.10 in North 2.1 mph 3.5 mph 88 % 0.00 in 11.0 W/m2 BKN
17:49 49.4 °F 46.0 °F 30.11 in North 2.0 mph 3.5 mph 88 % 0.00 in 7.0 W/m2 BKN
17:54 49.4 °F 46.0 °F 30.10 in North 1.3 mph 2.3 mph 88 % 0.00 in 0.0 W/m2 OVC
17:59 49.3 °F 45.9 °F 30.10 in North 1.8 mph 2.3 mph 88 % 0.00 in 0.0 W/m2 CLR
18:04 49.3 °F 45.9 °F 30.10 in Calm     88 % 0.00 in 0.0 W/m2 CLR
18:09 49.2 °F 45.8 °F 30.10 in North 1.6 mph 2.3 mph 88 % 0.00 in 0.0 W/m2 CLR
18:14 49.1 °F 45.7 °F 30.10 in North 2.5 mph 3.5 mph 88 % 0.00 in 0.0 W/m2 CLR
18:19 48.9 °F 45.8 °F 30.10 in Calm     89 % 0.00 in 0.0 W/m2 CLR
18:24 48.7 °F 45.6 °F 30.11 in Calm     89 % 0.00 in 0.0 W/m2 CLR
18:29 48.5 °F 45.4 °F 30.10 in North 2.4 mph 3.5 mph 89 % 0.00 in 0.0 W/m2 CLR
18:34 48.4 °F 45.3 °F 30.11 in Calm     89 % 0.00 in 0.0 W/m2 CLR
18:39 48.3 °F 45.2 °F 30.10 in Calm     89 % 0.00 in 0.0 W/m2 CLR
18:44 48.2 °F 45.1 °F 30.10 in Calm     89 % 0.00 in 0.0 W/m2 CLR
18:49 48.2 °F 45.1 °F 30.11 in Calm     89 % 0.00 in 0.0 W/m2 CLR
18:54 48.2 °F 45.1 °F 30.11 in Calm     89 % 0.00 in 0.0 W/m2 CLR
18:59 48.3 °F 45.5 °F 30.11 in Calm     90 % 0.00 in 0.0 W/m2 CLR
19:04 48.2 °F 45.1 °F 30.11 in Calm     89 % 0.00 in 0.0 W/m2 CLR
19:09 48.3 °F 45.5 °F 30.11 in Calm     90 % 0.00 in 0.0 W/m2 CLR
19:14 48.4 °F 45.6 °F 30.12 in Calm     90 % 0.00 in 0.0 W/m2 CLR
19:19 48.3 °F 45.5 °F 30.12 in North 1.8 mph 3.5 mph 90 % 0.00 in 0.0 W/m2 CLR
19:24 48.2 °F 45.4 °F 30.11 in Calm     90 % 0.00 in 0.0 W/m2 CLR
19:29 48.2 °F 45.4 °F 30.12 in NW 0.8 mph 3.5 mph 90 % 0.00 in 0.0 W/m2 CLR
19:34 48.2 °F 45.4 °F 30.12 in NW 2.2 mph 3.5 mph 90 % 0.00 in 0.0 W/m2 CLR
19:39 48.1 °F 45.3 °F 30.12 in WNW 3.2 mph 4.6 mph 90 % 0.00 in 0.0 W/m2 CLR
19:44 48.1 °F 45.3 °F 30.12 in Calm     90 % 0.00 in 0.0 W/m2 CLR
19:49 48.1 °F 45.6 °F 30.11 in Calm     91 % 0.00 in 0.0 W/m2 CLR
19:54 48.1 °F 45.6 °F 30.11 in Calm     91 % 0.00 in 0.0 W/m2 CLR
19:59 48.1 °F 45.6 °F 30.11 in Calm     91 % 0.00 in 0.0 W/m2 CLR
20:04 48.0 °F 45.5 °F 30.11 in Calm     91 % 0.01 in 0.0 W/m2 RA
20:09 47.9 °F 45.4 °F 30.11 in Calm     91 % 0.01 in 0.0 W/m2 RA
20:14 47.9 °F 45.4 °F 30.10 in Calm     91 % 0.01 in 0.0 W/m2
20:19 47.8 °F 45.6 °F 30.10 in Calm     92 % 0.01 in 0.0 W/m2
20:24 47.8 °F 45.6 °F 30.10 in Calm     92 % 0.01 in 0.0 W/m2
20:29 47.7 °F 45.5 °F 30.10 in Calm     92 % 0.01 in 0.0 W/m2
20:34 47.8 °F 45.6 °F 30.10 in Calm     92 % 0.01 in 0.0 W/m2
20:39 47.8 °F 45.6 °F 30.09 in Calm     92 % 0.01 in 0.0 W/m2
20:44 47.7 °F 45.5 °F 30.09 in Calm     92 % 0.02 in 0.0 W/m2 RA
20:49 47.7 °F 45.5 °F 30.09 in Calm     92 % 0.02 in 0.0 W/m2 RA
20:54 47.7 °F 45.8 °F 30.08 in Calm     93 % 0.02 in 0.0 W/m2
20:59 47.7 °F 45.8 °F 30.08 in Calm     93 % 0.02 in 0.0 W/m2
21:04 47.8 °F 45.9 °F 30.08 in Calm     93 % 0.01 in 0.0 W/m2
21:09 48.1 °F 46.2 °F 30.08 in Calm     93 % 0.01 in 0.0 W/m2
21:14 49.4 °F 47.7 °F 30.08 in WNW 0.1 mph 1.2 mph 94 % 0.01 in 0.0 W/m2
21:19 50.1 °F 48.4 °F 30.08 in WNW 0.1 mph 1.2 mph 94 % 0.01 in 0.0 W/m2
21:24 50.6 °F 48.9 °F 30.07 in SW 6.7 mph 10.4 mph 94 % 0.01 in 0.0 W/m2
21:29 51.1 °F 49.1 °F 30.07 in Calm     93 % 0.01 in 0.0 W/m2
21:34 51.1 °F 49.1 °F 30.06 in SW 2.2 mph 3.5 mph 93 % 0.01 in 0.0 W/m2
21:39 51.7 °F 50.0 °F 30.06 in SW 0.4 mph 2.3 mph 94 % 0.01 in 0.0 W/m2
21:44 52.4 °F 50.7 °F 30.06 in SW 3.4 mph 5.8 mph 94 % 0.00 in 0.0 W/m2 CLR
21:49 53.0 °F 51.0 °F 30.06 in SW 3.2 mph 4.6 mph 93 % 0.00 in 0.0 W/m2 CLR
21:54 53.4 °F 51.4 °F 30.06 in SW 2.8 mph 4.0 mph 93 % 0.00 in 0.0 W/m2 CLR
21:59 53.7 °F 51.7 °F 30.06 in SW 3.3 mph 5.0 mph 93 % 0.00 in 0.0 W/m2 CLR
22:04 54.0 °F 52.0 °F 30.05 in SW 3.0 mph 4.6 mph 93 % 0.00 in 0.0 W/m2 CLR
22:09 54.2 °F 52.2 °F 30.05 in SW 3.0 mph 5.0 mph 93 % 0.00 in 0.0 W/m2 CLR
22:14 54.3 °F 52.0 °F 30.05 in SW 2.8 mph 5.8 mph 92 % 0.00 in 0.0 W/m2 CLR
22:19 54.5 °F 52.2 °F 30.05 in SW 3.7 mph 5.8 mph 92 % 0.00 in 0.0 W/m2 CLR
22:24 54.7 °F 52.4 °F 30.05 in SW 2.4 mph 4.6 mph 92 % 0.00 in 0.0 W/m2 CLR
22:29 54.8 °F 52.2 °F 30.04 in SW 3.9 mph 6.0 mph 91 % 0.00 in 0.0 W/m2 CLR
22:34 54.8 °F 52.2 °F 30.04 in SW 1.6 mph 3.5 mph 91 % 0.00 in 0.0 W/m2 CLR
22:39 54.9 °F 52.3 °F 30.04 in SW 3.4 mph 5.8 mph 91 % 0.00 in 0.0 W/m2 CLR
22:44 54.9 °F 52.3 °F 30.03 in WSW 1.3 mph 3.5 mph 91 % 0.00 in 0.0 W/m2 CLR
22:49 55.0 °F 52.1 °F 30.03 in WSW 1.0 mph 3.5 mph 90 % 0.00 in 0.0 W/m2 CLR
22:54 55.0 °F 52.1 °F 30.03 in Calm   1.2 mph 90 % 0.00 in 0.0 W/m2 CLR
22:59 55.1 °F 52.2 °F 30.03 in West 2.3 mph 3.5 mph 90 % 0.00 in 0.0 W/m2 CLR
23:04 55.2 °F 52.3 °F 30.02 in WSW 3.5 mph 4.6 mph 90 % 0.00 in 0.0 W/m2 CLR
23:09 55.3 °F 52.1 °F 30.02 in WSW 2.6 mph 4.6 mph 89 % 0.00 in 0.0 W/m2 CLR
23:14 55.3 °F 51.8 °F 30.02 in West 0.1 mph 3.5 mph 88 % 0.00 in 0.0 W/m2 CLR
23:19 55.3 °F 51.8 °F 30.01 in Calm     88 % 0.00 in 0.0 W/m2 CLR
23:24 55.3 °F 51.8 °F 30.01 in West 0.5 mph 2.0 mph 88 % 0.00 in 0.0 W/m2 CLR
23:29 55.4 °F 51.9 °F 30.01 in West 0.9 mph 2.0 mph 88 % 0.00 in 0.0 W/m2 CLR
23:34 55.4 °F 51.9 °F 30.00 in Calm     88 % 0.00 in 0.0 W/m2 CLR
23:39 55.4 °F 51.9 °F 30.00 in Calm     88 % 0.00 in 0.0 W/m2 CLR
23:44 55.1 °F 51.3 °F 29.99 in Calm   3.5 mph 87 % 0.00 in 0.0 W/m2 CLR
23:50 55.1 °F 51.6 °F 29.98 in Calm   3.5 mph 88 % 0.00 in 0.0 W/m2 CLR
23:55 55.1 °F 51.3 °F 29.98 in Calm     87 % 0.00 in 0.0 W/m2 CLR
Air Products Campus Weather
Compliments of Weather Underground - 3.5 mb